Location: Kitchener-Waterloo
(43.4500°N, 80.5000°W)
Time: 01:32:05
(UTC-04:00)

Amateur Radio Satellites - All Passes

Search period start: 18 April 2014 01:02
Search period end: 19 April 2014 01:02
Location: Kitchener-Waterloo, 43.4500°N, 80.5000°W

Satellite Date Start Highest point End Downlink Frequencies (MHz)
Time Altitude Azimuth
UOSAT-12 18 Apr 01:22:30 01:24:10 12° 29° (NNE) 01:25:49 437.025 FM, 437.400 FM
Sapphire 18 Apr 01:23:44 01:28:51 45° 113° (ESE) 01:34:00 437.095 MHz 1200 baud AX-25 AFSK
Oscar 19 18 Apr 01:48:56 01:51:51 15° 90° (E) 01:54:45 437.125 CW, 437.150 USB
Oscar 16 18 Apr 01:56:18 01:59:57 19° 92° (E) 02:03:35 437.025 USB, Beacon 2401.1428
KITSAT 1 18 Apr 01:58:42 02:00:53 11° 97° (E) 02:03:03 435.175 FM
SO-50 18 Apr 02:08:20 02:12:39 38° 243° (WSW) 02:16:59 436.795 FM
PCSat 18 Apr 02:08:28 02:13:52 75° 302° (WNW) 02:19:19 145.825 MHz
OPAL 18 Apr 02:13:01 02:17:22 31° 63° (ENE) 02:21:48 ?
Uribyol 2 18 Apr 02:28:17 02:31:58 20° 92° (E) 02:35:39 436.500 FM
UOSAT-12 18 Apr 03:00:50 03:05:27 50° 50° (NE) 03:10:01 437.025 FM, 437.400 FM
AO-27 18 Apr 03:06:43 03:11:38 42° 98° (E) 03:16:31 436.795 MHz FM
Sapphire 18 Apr 03:07:40 03:12:26 31° 312° (NW) 03:17:14 437.095 MHz 1200 baud AX-25 AFSK
Oscar 10/S400 18 Apr 03:13:18 03:32:07 30° 132° (SE) 04:34:19 145.825 - 145.975 CW/USB, Beacon 145.810 USB
ITAMSAT 1 18 Apr 03:17:48 03:22:52 52° 100° (E) 03:27:54 435.822 SSB
Oscar 19 18 Apr 03:26:31 03:31:43 71° 287° (WNW) 03:36:52 437.125 CW, 437.150 USB
Oscar 16 18 Apr 03:34:34 03:39:40 56° 289° (WNW) 03:44:44 437.025 USB, Beacon 2401.1428
TMSAT-1 18 Apr 03:39:24 03:43:13 20° 92° (E) 03:47:00 436.925 FM
AO-Echo 18 Apr 03:42:14 03:47:04 73° 102° (ESE) 03:51:45 ?
KITSAT 1 18 Apr 03:46:41 03:54:39 63° 116° (ESE) 04:02:39 435.175 FM
OPAL 18 Apr 03:51:36 03:56:10 35° 261° (W) 04:00:49 ?
PCSat 18 Apr 03:54:57 03:58:14 16° 323° (NW) 04:01:32 145.825 MHz
Uosat F 18 Apr 04:02:48 04:03:09 10° 88° (E) 04:03:31 435.120 FM
Uribyol 2 18 Apr 04:06:44 04:11:47 54° 289° (WNW) 04:16:49 436.500 FM
JAS-1B 18 Apr 04:16:07 04:20:13 20° 92° (E) 04:24:22 435.800 - 435.900 CW/SSB
Gurwin Techsat 1B 18 Apr 04:28:53 04:34:13 76° 103° (ESE) 04:39:31 435.225 FM
UOSAT-12 18 Apr 04:41:41 04:45:17 22° 248° (WSW) 04:48:50 437.025 FM, 437.400 FM
AO-27 18 Apr 04:46:42 04:50:56 26° 296° (WNW) 04:55:11 436.795 MHz FM
ITAMSAT 1 18 Apr 04:58:07 05:02:00 22° 298° (WNW) 05:05:52 435.822 SSB
AO-7 18 Apr 04:58:41 05:05:47 30° 95° (E) 05:12:51 29.400 - 29.500 MHz
Oscar 19 18 Apr 05:09:13 05:10:07 10° 305° (NW) 05:11:00 437.125 CW, 437.150 USB
TMSAT-1 18 Apr 05:18:19 05:23:29 55° 289° (WNW) 05:28:38 436.925 FM
AO-Echo 18 Apr 05:22:42 05:25:13 14° 301° (WNW) 05:27:42 ?
Uosat F 18 Apr 05:37:38 05:42:40 88° 105° (ESE) 05:47:40 435.120 FM
KITSAT 1 18 Apr 05:43:08 05:50:31 37° 317° (NW) 05:57:58 435.175 FM
JAS-1B 18 Apr 06:05:49 06:11:22 54° 290° (WNW) 06:16:58 435.800 - 435.900 CW/SSB
Gurwin Techsat 1B 18 Apr 06:10:23 06:13:33 16° 301° (WNW) 06:16:43 435.225 FM
STRAND 1 18 Apr 06:26:51 06:31:29 36° 67° (ENE) 06:36:08 ?
RS-15 18 Apr 06:45:45 06:55:31 36° 107° (ESE) 07:05:00 29.354 - 29.394 USB, Beacon 29.352 USB
AO-7 18 Apr 06:50:52 06:59:03 64° 294° (WNW) 07:07:13 29.400 - 29.500 MHz
Uosat F 18 Apr 07:18:29 07:20:44 13° 302° (WNW) 07:22:58 435.120 FM
JAS-2 18 Apr 07:38:12 07:42:34 25° 95° (E) 07:47:13 435.800 - 435.900 CW/SSB, 435.910 FM
KITSAT 1 18 Apr 07:44:08 07:48:44 16° 345° (NNW) 07:53:20 435.175 FM
Hamsat 18 Apr 07:48:24 07:52:46 85° 284° (WNW) 07:57:08 145.90 MHz
MaSat-1 18 Apr 08:05:28 08:08:21 71° 245° (WSW) 08:11:46 437.345 MHz
STRAND 1 18 Apr 08:06:18 08:10:43 29° 264° (W) 08:15:09 ?
Sapphire 18 Apr 08:29:03 08:30:48 11° 31° (NNE) 08:32:34 437.095 MHz 1200 baud AX-25 AFSK
SO-67 18 Apr 08:38:35 08:42:06 71° 101° (E) 08:45:35 435.3500 MHz FM
AO-7 18 Apr 08:45:40 08:50:16 16° 316° (NW) 08:54:52 29.400 - 29.500 MHz
RS-15 18 Apr 08:55:50 09:07:06 70° 309° (NW) 09:18:04 29.354 - 29.394 USB, Beacon 29.352 USB
HO-68 18 Apr 09:08:14 09:12:21 16° 88° (E) 09:16:27 435.675 MHz FM
AO-40 18 Apr 09:11:57 10:27:00 17° 228° (SW) 12:38:31 Beacon 2401.320
PCSat 18 Apr 09:12:41 09:16:48 21° 42° (NE) 09:20:54 145.825 MHz
JAS-2 18 Apr 09:22:49 09:27:51 45° 290° (WNW) 09:33:17 435.800 - 435.900 CW/SSB, 435.910 FM
KITSAT 1 18 Apr 09:43:24 09:48:10 16° 17° (NNE) 09:52:55 435.175 FM
Sapphire 18 Apr 10:10:23 10:15:38 48° 53° (NE) 10:20:51 437.095 MHz 1200 baud AX-25 AFSK
FUNcube-1 18 Apr 10:43:31 10:44:44 11° 89° (E) 10:45:58 145.950 - 145.970 MHz USB
HO-68 18 Apr 10:53:47 11:01:00 87° 107° (ESE) 11:08:12 435.675 MHz FM
Oscar 11 18 Apr 10:55:13 10:59:27 48° 99° (E) 11:03:39 145.825 FM, Beacon 2401.500 USB
PCSat 18 Apr 10:55:23 11:00:49 75° 242° (WSW) 11:06:12 145.825 MHz
RS-15 18 Apr 11:12:36 11:21:50 29° 338° (NNW) 11:31:00 29.354 - 29.394 USB, Beacon 29.352 USB
KITSAT 1 18 Apr 11:38:42 11:46:14 40° 44° (NE) 11:53:43 435.175 FM
Sapphire 18 Apr 11:54:20 11:58:47 27° 252° (WSW) 12:03:14 437.095 MHz 1200 baud AX-25 AFSK
FUNcube-1 18 Apr 12:17:23 12:21:36 68° 285° (WNW) 12:25:53 145.950 - 145.970 MHz USB
Saudisat 1A 18 Apr 12:21:11 12:25:40 86° 123° (ESE) 12:30:09 436.775 MHz
Oscar 11 18 Apr 12:32:23 12:35:17 18° 296° (WNW) 12:38:11 145.825 FM, Beacon 2401.500 USB
HO-68 18 Apr 12:42:49 12:47:50 21° 306° (NW) 12:52:52 435.675 MHz FM
AO-27 18 Apr 12:51:29 12:52:33 11° 55° (NE) 12:53:37 436.795 MHz FM
ITAMSAT 1 18 Apr 13:01:10 13:03:27 13° 57° (ENE) 13:05:44 435.822 SSB
Oscar 19 18 Apr 13:06:35 13:10:44 25° 64° (ENE) 13:14:54 437.125 CW, 437.150 USB
Oscar 16 18 Apr 13:14:13 13:18:42 31° 66° (ENE) 13:23:12 437.025 USB, Beacon 2401.1428
AO-Echo 18 Apr 13:20:01 13:22:56 15° 60° (ENE) 13:25:48 ?
RS-15 18 Apr 13:30:16 13:38:57 26° 14° (NNE) 13:47:39 29.354 - 29.394 USB, Beacon 29.352 USB
KITSAT 1 18 Apr 13:34:05 13:41:58 58° 246° (WSW) 13:49:47 435.175 FM
Uribyol 2 18 Apr 13:47:05 13:51:41 34° 67° (ENE) 13:56:17 436.500 FM
Saudisat 1A 18 Apr 14:03:01 14:05:53 17° 323° (NW) 14:08:45 436.775 MHz
AO-7 18 Apr 14:13:14 14:15:48 12° 39° (NE) 14:18:21 29.400 - 29.500 MHz
Gurwin Techsat 1B 18 Apr 14:13:27 14:17:06 19° 61° (ENE) 14:20:46 435.225 FM
AO-27 18 Apr 14:25:58 14:31:08 72° 73° (ENE) 14:36:20 436.795 MHz FM
ITAMSAT 1 18 Apr 14:36:59 14:42:10 88° 75° (ENE) 14:47:23 435.822 SSB
Oscar 19 18 Apr 14:44:57 14:49:49 43° 262° (W) 14:54:45 437.125 CW, 437.150 USB
Oscar 16 18 Apr 14:53:20 14:57:59 34° 263° (W) 15:02:40 437.025 USB, Beacon 2401.1428
AO-Echo 18 Apr 14:55:49 15:01:05 79° 257° (WSW) 15:06:15 ?
TMSAT-1 18 Apr 15:01:04 15:05:48 35° 67° (ENE) 15:10:33 436.925 FM
JAS-1B 18 Apr 15:01:51 15:08:10 28° 63° (ENE) 15:13:42 435.800 - 435.900 CW/SSB
Uosat F 18 Apr 15:15:23 15:18:47 19° 61° (ENE) 15:22:11 435.120 FM
Uribyol 2 18 Apr 15:26:33 15:31:08 32° 264° (W) 15:35:45 436.500 FM
RS-15 18 Apr 15:43:47 15:54:29 55° 45° (NE) 16:05:21 29.354 - 29.394 USB, Beacon 29.352 USB
Gurwin Techsat 1B 18 Apr 15:51:19 15:56:35 63° 259° (WSW) 16:01:52 435.225 FM
AO-7 18 Apr 15:58:47 16:06:32 47° 61° (ENE) 16:14:18 29.400 - 29.500 MHz
OPAL 18 Apr 15:59:38 16:04:45 54° 103° (ESE) 16:09:51 ?
AO-27 18 Apr 16:08:22 16:11:11 15° 270° (W) 16:14:01 436.795 MHz FM
ITAMSAT 1 18 Apr 16:20:40 16:22:21 11° 272° (W) 16:24:02 435.822 SSB
SO-50 18 Apr 16:24:10 16:28:31 53° 119° (ESE) 16:32:55 436.795 FM
ISS 18 Apr 16:36:29 16:39:46 58° 143° (SE) 16:43:05 145.800 FM
TMSAT-1 18 Apr 16:41:01 16:45:43 32° 264° (W) 16:50:27 436.925 FM
JAS-1B 18 Apr 16:50:18 16:58:28 64° 258° (WSW) 17:05:18 435.800 - 435.900 CW/SSB
Uosat F 18 Apr 16:52:09 16:57:07 60° 258° (WSW) 17:02:06 435.120 FM
UOSAT-12 18 Apr 17:17:26 17:17:59 10° 106° (ESE) 17:18:32 437.025 FM, 437.400 FM
OPAL 18 Apr 17:39:19 17:43:15 22° 300° (WNW) 17:47:11 ?
AO-7 18 Apr 17:51:37 17:59:21 43° 261° (W) 18:07:09 29.400 - 29.500 MHz
JAS-2 18 Apr 17:55:08 17:57:21 13° 58° (ENE) 17:59:31 435.800 - 435.900 CW/SSB, 435.910 FM
RS-15 18 Apr 17:56:28 18:06:45 50° 248° (WSW) 18:17:20 29.354 - 29.394 USB, Beacon 29.352 USB
SO-50 18 Apr 18:05:48 18:09:23 23° 319° (NW) 18:13:00 436.795 FM
ISS 18 Apr 18:13:42 18:16:42 29° 342° (NNW) 18:19:43 145.800 FM
STRAND 1 18 Apr 18:39:36 18:40:01 10° 87° (E) 18:40:25 ?
Hamsat 18 Apr 18:42:53 18:47:04 78° 76° (ENE) 18:51:19 145.90 MHz
UOSAT-12 18 Apr 18:52:46 18:57:20 87° 125° (SE) 19:02:01 437.025 FM, 437.400 FM
Saudisat 1A 18 Apr 19:08:34 19:11:22 16° 37° (NE) 19:14:09 436.775 MHz
SO-67 18 Apr 19:13:44 19:16:45 28° 71° (ENE) 19:19:47 435.3500 MHz FM
JAS-2 18 Apr 19:35:53 19:41:47 85° 75° (ENE) 19:47:10 435.800 - 435.900 CW/SSB, 435.910 FM
HO-68 18 Apr 19:39:34 19:43:36 16° 50° (NE) 19:47:37 435.675 MHz FM
ISS 18 Apr 19:51:38 19:54:11 20° 2° (N) 19:56:45 145.800 FM
STRAND 1 18 Apr 20:14:49 20:19:56 86° 104° (ESE) 20:25:02 ?
UOSAT-12 18 Apr 20:35:06 20:38:09 17° 324° (NW) 20:41:15 437.025 FM, 437.400 FM
Saudisat 1A 18 Apr 20:47:09 20:51:36 86° 237° (WSW) 20:55:58 436.775 MHz
SO-67 18 Apr 20:47:32 20:49:57 18° 267° (W) 20:52:23 435.3500 MHz FM
HO-68 18 Apr 21:23:01 21:30:07 74° 70° (ENE) 21:37:15 435.675 MHz FM
JAS-2 18 Apr 21:25:03 21:27:27 13° 270° (W) 21:29:47 435.800 - 435.900 CW/SSB, 435.910 FM
ISS 18 Apr 21:28:29 21:31:37 35° 22° (NNE) 21:34:45 145.800 FM
FUNcube-1 18 Apr 21:42:09 21:43:27 11° 61° (ENE) 21:44:45 145.950 - 145.970 MHz USB
Oscar 11 18 Apr 21:51:26 21:55:30 43° 71° (ENE) 21:59:36 145.825 FM, Beacon 2401.500 USB
STRAND 1 18 Apr 21:55:58 21:58:25 14° 302° (WNW) 22:00:52 ?
MaSat-1 18 Apr 22:10:24 22:13:08 34° 114° (ESE) 22:15:35 437.345 MHz
ISS 18 Apr 23:05:13 23:08:25 40° 220° (SW) 23:11:35 145.800 FM
HO-68 18 Apr 23:13:13 23:18:28 22° 269° (W) 23:23:45 435.675 MHz FM
FUNcube-1 18 Apr 23:15:06 23:19:19 73° 258° (WSW) 23:23:30 145.950 - 145.970 MHz USB
SO-50 18 Apr 23:15:28 23:17:48 14° 33° (NNE) 23:20:08 436.795 FM
Oscar 11 18 Apr 23:28:59 23:31:55 18° 268° (W) 23:34:51 145.825 FM, Beacon 2401.500 USB
PCSat 18 Apr 23:59:20 00:00:51 11° 101° (ESE) 00:02:21 145.825 MHz
